[[{"header":{"parameterUnit":"m.s-1","parameterCategory":1,"la1":30.2991,"la2":30.254,"lo1":-89.0895,"lo2":-89.0444,"dy":0.0017,"dx":0.0017,"nx":28,"ny":28,"refTime":"2025-04-22T21:00:00:Z","depth":0,"parameterNumber":2,"parameterNumberName":"U-component_of_WINDS"},"data":[0,0,0,0,0,0,0,0,0,0,0,0,0,0,0,0,0,0,0,0,0,0,0,0,0,0,0,0,0,0,0,0,0,0,0,0,0,0,0,0,0,0,0,0,0,0,0,0,0,0,0,0,0,0,0,0,0,0,-1.055,-1.0549,0,-1.0536,-1.0536,-1.0536,-1.0516,-1.0515,-1.0515,-1.0515,-1.0501,-1.0501,-1.0501,0,0,0,0,0,0,0,0,0,0,0,0,0,-1.0558,-1.0558,-1.055,-1.0549,-1.0549,-1.0536,-1.0536,-1.0536,-1.0516,-1.0515,-1.0515,-1.0514,-1.0501,-1.0501,-1.0501,0,0,0,0,0,0,0,0,0,0,0,0,0,-1.055,-1.0558,-1.055,-1.0538,-1.0536,-1.0537,-1.0536,-1.0536,-1.0516,-1.0515,-1.0515,-1.0514,-1.0501,-1.0501,-1.0501,-1.0513,0,0,-1.0501,-1.0501,0,0,0,0,0,0,0,0,-1.0551,-1.055,-1.0539,-1.0538,-1.0537,-1.0527,-1.0534,-1.0528,-1.0516,-1.0524,-1.0515,-1.0514,-1.051,-1.051,-1.0508,-1.0512,-1.0511,-1.0501,-1.0501,-1.0501,-1.0501,0,0,0,0,0,0,0,-1.0551,-1.0551,-1.0544,-1.0539,-1.0538,-1.0533,-1.0531,-1.0533,-1.052,-1.0523,-1.0521,-1.052,-1.051,-1.0509,-1.0508,-1.0511,-1.0501,-1.0501,-1.0501,-1.0501,-1.0524,-1.0524,0,0,0,0,0,0,-1.0554,-1.0551,-1.0545,-1.0544,-1.0543,-1.0533,-1.0531,-1.0531,-1.052,-1.0518,-1.0521,-1.0519,-1.0509,-1.0508,-1.0507,-1.052,-1.0501,-1.0501,-1.0501,-1.0523,-1.0524,-1.0524,0,0,0,0,0,0,-1.0554,-1.0553,-1.0545,-1.0547,-1.0546,-1.0534,-1.0533,-1.0531,-1.053,-1.0518,-1.0516,-1.0522,-1.0508,-1.0507,-1.0511,-1.0519,-1.0501,-1.0501,-1.0522,-1.0523,-1.0524,-1.0545,0,0,0,0,0,0,-1.0554,-1.0553,-1.0557,-1.0547,-1.0546,-1.0549,-1.0534,-1.0531,-1.053,-1.0528,-1.0519,-1.0517,-1.0508,-1.0512,-1.0512,-1.0519,-1.0501,-1.0521,-1.0523,-1.0524,-1.0543,-1.0546,-1.0548,0,0,0,0,0,-1.0555,-1.0564,-1.0558,-1.0557,-1.055,-1.055,-1.0549,-1.0538,-1.053,-1.0534,-1.0527,-1.0517,-1.0518,-1.0512,-1.0512,-1.0519,-1.0521,-1.0522,-1.0524,-1.0542,-1.0545,-1.0548,0,0,0,0,0,0,-1.0574,-1.0562,-1.0555,-1.0561,-1.0557,-1.0546,-1.0551,-1.0542,-1.054,-1.0538,-1.0525,-1.0523,-1.0529,-1.0525,-1.0518,-1.053,-1.0518,-1.052,-1.0532,-1.0535,-1.0538,-1.0539,-1.0501,0,0,0,0,0,-1.058,-1.058,-1.0569,-1.0576,-1.0574,-1.0563,-1.0562,-1.0554,-1.0549,-1.0547,-1.0541,-1.0536,-1.0535,-1.0535,-1.0534,-1.0543,-1.054,-1.0548,-1.055,-1.0553,-1.0554,-1.0558,-1.0561,-1.0529,-1.0529,-1.0529,0,0,-1.059,-1.0583,-1.0584,-1.058,-1.0575,-1.0576,-1.0561,-1.0563,-1.0564,-1.0548,-1.0551,-1.0546,-1.054,-1.0547,-1.0549,-1.0543,-1.0562,-1.0554,-1.0556,-1.0556,-1.056,-1.0563,-1.0566,-1.053,-1.0529,-1.0529,0,0,-1.061,-1.0605,-1.061,-1.0606,-1.0599,-1.0592,-1.0593,-1.0584,-1.058,-1.0584,-1.0572,-1.0573,-1.0572,-1.0568,-1.0566,-1.0586,-1.0576,-1.0586,-1.06,-1.0604,-1.0607,-1.0609,-1.0616,-1.0618,-1.0587,-1.0587,-1.0587,0,-1.0624,-1.0624,-1.0613,-1.0616,-1.0614,-1.06,-1.0605,-1.0602,-1.0595,-1.0595,-1.0588,-1.0587,-1.0582,-1.0588,-1.0592,-1.0591,-1.0592,-1.0586,-1.0607,-1.0609,-1.0611,-1.0617,-1.062,-1.0588,-1.0588,-1.0588,-1.0588,0,-1.0642,-1.0643,-1.0648,-1.0642,-1.0641,-1.0645,-1.0634,-1.0635,-1.0627,-1.0621,-1.0625,-1.0618,-1.0616,-1.0617,-1.0609,-1.0621,-1.0618,-1.0609,-1.0597,-1.0616,-1.0621,-1.0624,-1.059,-1.0589,-1.0589,-1.0589,0,0,-1.0673,-1.0661,-1.0663,-1.0661,-1.0653,-1.0654,-1.0657,-1.0655,-1.0655,-1.0652,-1.0654,-1.0654,-1.0647,-1.0645,-1.0637,-1.0641,-1.0657,-1.0632,-1.0632,-1.0637,-1.067,-1.0676,-1.0679,-1.0651,-1.0651,-1.0652,-1.067,0,-1.0691,-1.0696,-1.0686,-1.0693,-1.0694,-1.0681,-1.0684,-1.068,-1.0674,-1.0674,-1.0668,-1.0669,-1.0658,-1.0657,-1.0661,-1.0654,-1.0663,-1.0653,-1.0653,-1.0653,-1.0655,-1.0682,-1.0688,-1.0706,-1.0672,-1.0673,-1.0673,0,-1.0712,-1.071,-1.0717,-1.0709,-1.0709,-1.0712,-1.0709,-1.071,-1.0705,-1.07,-1.0699,-1.069,-1.0693,-1.0682,-1.0686,-1.068,-1.0679,-1.0676,-1.0677,-1.0676,-1.0664,-1.0681,-1.0711,-1.0713,-1.0676,-1.0676,-1.0676,0,-1.0734,-1.0733,-1.0737,-1.0735,-1.0726,-1.0728,-1.0725,-1.072,-1.0719,-1.0717,-1.0716,-1.0714,-1.0713,-1.0712,-1.0704,-1.0696,-1.0709,-1.0697,-1.0706,-1.0706,-1.0708,-1.0708,-1.0738,-1.0709,-1.0709,-1.0709,-1.0709,0,-1.0755,-1.076,-1.0746,-1.0749,-1.0754,-1.0744,-1.0749,-1.0745,-1.074,-1.0742,-1.0731,-1.0732,-1.0721,-1.0722,-1.0715,-1.0719,-1.0719,-1.0716,-1.0714,-1.0717,-1.0717,-1.0716,-1.0714,-1.0709,-1.0709,-1.0709,-1.0709,0,-1.078,-1.0771,-1.0775,-1.0766,-1.0764,-1.0769,-1.0761,-1.0764,-1.0758,-1.076,-1.076,-1.075,-1.0751,-1.0742,-1.0741,-1.0736,-1.0744,-1.074,-1.0745,-1.0744,-1.0753,-1.0752,-1.0782,-1.0786,-1.0755,-1.0755,-1.0756,0,-1.0793,-1.0797,-1.0789,-1.0789,-1.0786,-1.0787,-1.0786,-1.0776,-1.0776,-1.0771,-1.0774,-1.0773,-1.0772,-1.0773,-1.0766,-1.0765,-1.0761,-1.0772,-1.0761,-1.0764,-1.0761,-1.0761,-1.0761,-1.0774,-1.0775,-1.0775,-1.0775,0,-1.0818,-1.0814,-1.0813,-1.0811,-1.0811,-1.0809,-1.0806,-1.0807,-1.0796,-1.0796,-1.0797,-1.0796,-1.0795,-1.0794,-1.0792,-1.0789,-1.078,-1.0779,-1.0781,-1.0783,-1.0786,-1.0785,-1.0751,-1.0778,-1.0778,-1.0778,-1.0777,-1.0777,-1.0838,-1.0841,-1.0836,-1.0835,-1.0832,-1.083,-1.0832,-1.0826,-1.0826,-1.0824,-1.0818,-1.0819,-1.0815,-1.0811,-1.0809,-1.081,-1.0805,-1.0807,-1.0808,-1.0809,-1.081,-1.0786,-1.081,-1.0809,-1.0809,-1.0809,-1.0809,0,-1.0863,-1.0859,-1.0859,-1.0855,-1.0855,-1.0847,-1.0844,-1.0844,-1.0846,-1.0842,-1.0842,-1.0842,-1.0842,-1.0835,-1.0834,-1.0837,-1.0833,-1.0837,-1.0836,-1.0836,-1.0815,-1.0813,-1.084,-1.084,-1.084,-1.084,-1.084,-1.084,-1.0875,-1.0879,-1.0875,-1.0877,-1.0873,-1.0874,-1.0873,-1.0871,-1.0869,-1.087,-1.0869,-1.0865,-1.086,-1.0859,-1.0859,-1.0857,-1.0857,-1.0862,-1.0859,-1.084,-1.0837,-1.0834,-1.0833,-1.0862,-1.0863,-1.088,-1.088,-1.088]},{"header":{"parameterUnit":"m.s-1","parameterCategory":1,"la1":30.2991,"la2":30.254,"lo1":-89.0895,"lo2":-89.0444,"dy":0.0017,"dx":0.0017,"nx":28,"ny":28,"refTime":"2025-04-22T21:00:00:Z","depth":0,"parameterNumber":3,"parameterNumberName":"V-component_of_WINDS"},"data":[0,0,0,0,0,0,0,0,0,0,0,0,0,0,0,0,0,0,0,0,0,0,0,0,0,0,0,0,0,0,0,0,0,0,0,0,0,0,0,0,0,0,0,0,0,0,0,0,0,0,0,0,0,0,0,0,0,0,4.1683,4.1683,0,4.1674,4.1674,4.1674,4.1643,4.1643,4.1642,4.1641,4.1631,4.1632,4.1632,0,0,0,0,0,0,0,0,0,0,0,0,0,4.1673,4.1673,4.1683,4.1683,4.1683,4.1674,4.1674,4.1674,4.1643,4.1643,4.1642,4.1641,4.1631,4.1632,4.1632,0,0,0,0,0,0,0,0,0,0,0,0,0,4.1672,4.1673,4.1683,4.1667,4.1665,4.1675,4.1674,4.1674,4.1644,4.1643,4.1641,4.164,4.1631,4.1632,4.1632,4.1657,0,0,4.1634,4.1634,0,0,0,0,0,0,0,0,4.1672,4.1673,4.1669,4.1668,4.1666,4.1659,4.1667,4.1668,4.1644,4.1652,4.1641,4.164,4.1641,4.1641,4.1642,4.1656,4.1656,4.1634,4.1634,4.1635,4.1635,0,0,0,0,0,0,0,4.1672,4.1673,4.168,4.1669,4.1667,4.166,4.1658,4.1667,4.1652,4.1651,4.1649,4.1648,4.164,4.1641,4.1641,4.1656,4.1634,4.1634,4.1635,4.1635,4.1691,4.1692,0,0,0,0,0,0,4.1675,4.1673,4.168,4.1679,4.1667,4.1661,4.1659,4.1662,4.1652,4.165,4.1649,4.1647,4.1641,4.164,4.1641,4.1669,4.1635,4.1635,4.1635,4.169,4.1691,4.1692,0,0,0,0,0,0,4.1675,4.1676,4.168,4.1676,4.1676,4.1662,4.1666,4.1663,4.1663,4.1651,4.1648,4.1653,4.164,4.164,4.1653,4.1668,4.1635,4.1636,4.1688,4.169,4.1692,4.1726,0,0,0,0,0,0,4.1675,4.1676,4.1685,4.1676,4.1676,4.1693,4.1666,4.1663,4.1665,4.1662,4.1653,4.1651,4.1639,4.1652,4.1654,4.1668,4.1636,4.1687,4.1689,4.1691,4.1723,4.1729,4.1733,0,0,0,0,0,4.1674,4.1694,4.1686,4.1687,4.1687,4.1694,4.1694,4.168,4.1666,4.1675,4.1667,4.1651,4.1667,4.1654,4.1655,4.167,4.1686,4.1689,4.1691,4.1721,4.1728,4.1733,0,0,0,0,0,0,4.1705,4.1693,4.1683,4.1701,4.1699,4.1689,4.17,4.1687,4.1688,4.1685,4.1668,4.1666,4.1682,4.1678,4.1664,4.1694,4.1674,4.1677,4.1696,4.1702,4.1707,4.1707,4.1637,0,0,0,0,0,4.1714,4.172,4.171,4.1727,4.1726,4.1713,4.1716,4.1705,4.1702,4.1701,4.1694,4.1691,4.1696,4.1699,4.1702,4.1723,4.1721,4.1734,4.1739,4.1743,4.1745,4.1757,4.1763,4.1701,4.1701,4.1701,0,0,4.1732,4.1726,4.1731,4.1733,4.173,4.1737,4.1713,4.1721,4.1727,4.1702,4.1714,4.171,4.1706,4.1723,4.173,4.172,4.1762,4.1746,4.175,4.175,4.176,4.1766,4.1771,4.1702,4.1702,4.1702,0,0,4.1769,4.1765,4.1779,4.1777,4.1774,4.1765,4.1769,4.1761,4.1757,4.1769,4.1751,4.1758,4.1765,4.1763,4.1763,4.1802,4.1787,4.1803,4.1828,4.184,4.1844,4.1849,4.1862,4.1868,4.1806,4.1806,4.1806,0,4.1791,4.1802,4.1788,4.1798,4.1799,4.1779,4.1793,4.1792,4.1789,4.179,4.1779,4.1789,4.1784,4.1802,4.1811,4.1812,4.1815,4.1804,4.1845,4.1849,4.1853,4.1866,4.1871,4.1808,4.1808,4.1807,4.1807,0,4.1831,4.1839,4.185,4.1849,4.1852,4.1864,4.1852,4.1856,4.1846,4.1839,4.1852,4.1847,4.1849,4.1852,4.1842,4.1869,4.1862,4.1848,4.1827,4.1861,4.1873,4.1878,4.1811,4.181,4.1809,4.1809,0,0,4.1885,4.1877,4.1882,4.1882,4.1877,4.1882,4.1894,4.1897,4.1901,4.1901,4.191,4.1918,4.1905,4.1905,4.1895,4.1905,4.1936,4.189,4.1889,4.1898,4.1965,4.1976,4.1982,4.1927,4.1928,4.1929,4.1966,0,4.192,4.194,4.1928,4.1949,4.1957,4.1938,4.1948,4.1947,4.1941,4.1946,4.1939,4.1945,4.1928,4.1928,4.1937,4.193,4.1949,4.1928,4.1935,4.1936,4.1937,4.1988,4.1998,4.2034,4.197,4.1971,4.1971,0,4.1963,4.1966,4.1988,4.1983,4.1986,4.1995,4.1997,4.2003,4.2001,4.1996,4.1997,4.1984,4.1996,4.1976,4.1991,4.1977,4.1979,4.1977,4.1978,4.1977,4.1955,4.1989,4.2044,4.205,4.1979,4.1978,4.1977,0,4.2001,4.201,4.2024,4.2025,4.2019,4.2026,4.2024,4.2021,4.2024,4.2026,4.2028,4.2031,4.2033,4.2035,4.2024,4.2011,4.2041,4.202,4.2037,4.2038,4.2044,4.2044,4.2101,4.2046,4.2046,4.2046,4.2046,0,4.2041,4.2056,4.2041,4.205,4.2066,4.2053,4.2069,4.2065,4.2063,4.2071,4.2055,4.2063,4.2047,4.2054,4.2045,4.2059,4.206,4.2057,4.2054,4.2058,4.2058,4.2059,4.2056,4.2048,4.2047,4.2047,4.2047,0,4.2085,4.2077,4.2091,4.2086,4.2084,4.2096,4.2091,4.2099,4.2093,4.2104,4.2105,4.2095,4.2102,4.2091,4.2097,4.2091,4.2111,4.2105,4.2112,4.211,4.2127,4.2126,4.2187,4.2194,4.2135,4.2136,4.2136,0,4.2111,4.2122,4.2118,4.2123,4.2122,4.2129,4.2132,4.212,4.2124,4.2124,4.2132,4.2138,4.2141,4.2153,4.2146,4.215,4.2144,4.2165,4.2144,4.2148,4.2144,4.2144,4.2145,4.2169,4.217,4.217,4.2171,0,4.2159,4.2154,4.216,4.2164,4.2169,4.2171,4.2172,4.2177,4.2164,4.217,4.2177,4.218,4.2186,4.2192,4.2195,4.2192,4.218,4.2178,4.2182,4.2185,4.2189,4.2188,4.2123,4.2176,4.2175,4.2175,4.2175,4.2175,4.2195,4.2204,4.2203,4.2209,4.221,4.2212,4.2219,4.2215,4.2221,4.2225,4.2217,4.2227,4.2225,4.2228,4.2227,4.2234,4.2225,4.2231,4.2233,4.2234,4.2237,4.2189,4.2235,4.2235,4.2234,4.2234,4.2234,0,4.2241,4.224,4.2246,4.225,4.2255,4.2244,4.2245,4.225,4.2259,4.2259,4.2264,4.2272,4.2278,4.2273,4.2277,4.2284,4.2279,4.2286,4.2285,4.2285,4.2245,4.2241,4.2291,4.229,4.229,4.229,4.229,4.229,4.2266,4.2281,4.2277,4.2292,4.229,4.23,4.2302,4.2304,4.2304,4.2315,4.232,4.2316,4.2314,4.2319,4.2324,4.2322,4.2325,4.2334,4.233,4.2293,4.2288,4.2282,4.2278,4.2335,4.2335,4.237,4.237,4.237]}]]